Time,TemperatureF,DewpointF,PressureIn,WindDirection,WindDirectionDegrees,WindSpeedMPH,WindSpeedGustMPH,Humidity,HourlyPrecipIn,Conditions,Clouds,dailyrainin,SolarRadiationWatts/m^2,SoftwareType,DateUTC
2013-06-05 00:02:00,57.0,48.0,-100.00,West,279,1.0,1.0,71,0.00,,,0.00,397.000000,,2013-06-05 07:02:00,
2013-06-05 00:12:00,57.0,48.0,-100.00,West,279,1.0,1.0,71,0.00,,,0.00,397.000000,,2013-06-05 07:12:00,
2013-06-05 00:22:00,57.0,48.0,-100.00,West,279,1.0,1.0,71,0.00,,,0.00,397.000000,,2013-06-05 07:22:00,
2013-06-05 00:32:00,57.0,48.0,-100.00,West,279,1.0,1.0,71,0.00,,,0.00,397.000000,,2013-06-05 07:32:00,
2013-06-05 00:42:00,55.0,47.0,-100.00,West,279,6.0,6.0,75,0.00,,,0.00,343.000000,,2013-06-05 07:42:00,
2013-06-05 01:02:00,55.0,47.0,-100.00,West,279,6.0,6.0,75,0.00,,,0.00,343.000000,,2013-06-05 08:02:00,
2013-06-05 01:12:00,55.0,47.0,-100.00,West,279,6.0,6.0,75,0.00,,,0.00,343.000000,,2013-06-05 08:12:00,
2013-06-05 01:22:00,55.0,47.0,-100.00,West,279,6.0,6.0,75,0.00,,,0.00,343.000000,,2013-06-05 08:22:00,
2013-06-05 01:32:00,55.0,47.0,-100.00,West,279,6.0,6.0,75,0.00,,,0.00,343.000000,,2013-06-05 08:32:00,
2013-06-05 01:42:00,53.0,46.0,-100.00,West,279,6.0,6.0,77,0.00,,,0.00,284.000000,,2013-06-05 08:42:00,
2013-06-05 02:02:00,53.0,46.0,-100.00,West,279,6.0,6.0,77,0.00,,,0.00,284.000000,,2013-06-05 09:02:00,
2013-06-05 02:12:00,53.0,46.0,-100.00,West,279,6.0,6.0,77,0.00,,,0.00,284.000000,,2013-06-05 09:12:00,
2013-06-05 02:22:00,53.0,46.0,-100.00,West,279,6.0,6.0,77,0.00,,,0.00,284.000000,,2013-06-05 09:22:00,
2013-06-05 02:32:00,53.0,46.0,-100.00,West,279,6.0,6.0,77,0.00,,,0.00,284.000000,,2013-06-05 09:32:00,
2013-06-05 02:42:00,52.0,46.0,-100.00,West,279,3.0,6.0,79,0.00,,,0.00,261.000000,,2013-06-05 09:42:00,
2013-06-05 03:03:00,52.0,46.0,-100.00,West,279,3.0,6.0,79,0.00,,,0.00,261.000000,,2013-06-05 10:03:00,
2013-06-05 03:12:00,52.0,46.0,-100.00,West,279,3.0,6.0,79,0.00,,,0.00,261.000000,,2013-06-05 10:12:00,
2013-06-05 03:22:00,52.0,46.0,-100.00,West,279,3.0,6.0,79,0.00,,,0.00,261.000000,,2013-06-05 10:22:00,
2013-06-05 03:33:00,52.0,46.0,-100.00,West,279,3.0,6.0,79,0.00,,,0.00,261.000000,,2013-06-05 10:33:00,
2013-06-05 03:42:00,52.0,47.0,-100.00,West,279,1.0,3.0,83,0.00,,,0.00,226.000000,,2013-06-05 10:42:00,
2013-06-05 04:02:00,52.0,47.0,-100.00,West,279,1.0,3.0,83,0.00,,,0.00,226.000000,,2013-06-05 11:02:00,
2013-06-05 04:12:00,52.0,47.0,-100.00,West,279,1.0,3.0,83,0.00,,,0.00,226.000000,,2013-06-05 11:12:00,
2013-06-05 04:22:00,52.0,47.0,-100.00,West,279,1.0,3.0,83,0.00,,,0.00,226.000000,,2013-06-05 11:22:00,
2013-06-05 04:32:00,52.0,47.0,-100.00,West,279,1.0,3.0,83,0.00,,,0.00,226.000000,,2013-06-05 11:32:00,
2013-06-05 04:42:00,49.0,45.0,-100.00,NW,320,4.0,4.0,86,0.00,,,0.00,211.000000,,2013-06-05 11:42:00,
2013-06-05 05:02:00,49.0,45.0,-100.00,NW,320,4.0,4.0,86,0.00,,,0.00,211.000000,,2013-06-05 12:02:00,
2013-06-05 05:12:00,49.0,45.0,-100.00,NW,320,4.0,4.0,86,0.00,,,0.00,211.000000,,2013-06-05 12:12:00,
2013-06-05 05:22:00,49.0,45.0,-100.00,NW,320,4.0,4.0,86,0.00,,,0.00,211.000000,,2013-06-05 12:22:00,
2013-06-05 05:32:00,49.0,45.0,-100.00,NW,320,4.0,4.0,86,0.00,,,0.00,211.000000,,2013-06-05 12:32:00,
2013-06-05 05:42:00,50.0,46.0,-100.00,West,279,2.0,5.0,87,0.00,,,0.00,189.000000,,2013-06-05 12:42:00,
2013-06-05 06:02:00,50.0,46.0,-100.00,West,279,2.0,5.0,87,0.00,,,0.00,189.000000,,2013-06-05 13:02:00,
2013-06-05 06:12:00,50.0,46.0,-100.00,West,279,2.0,5.0,87,0.00,,,0.00,189.000000,,2013-06-05 13:12:00,
2013-06-05 06:22:00,50.0,46.0,-100.00,West,279,2.0,5.0,87,0.00,,,0.00,189.000000,,2013-06-05 13:22:00,
2013-06-05 06:32:00,50.0,46.0,-100.00,West,279,2.0,5.0,87,0.00,,,0.00,189.000000,,2013-06-05 13:32:00,
2013-06-05 06:42:00,48.0,45.0,-100.00,West,279,2.0,2.0,89,0.00,,,0.00,175.000000,,2013-06-05 13:42:00,
2013-06-05 07:02:00,48.0,45.0,-100.00,West,279,2.0,2.0,89,0.00,,,0.00,175.000000,,2013-06-05 14:02:00,
2013-06-05 07:12:00,48.0,45.0,-100.00,West,279,2.0,2.0,89,0.00,,,0.00,175.000000,,2013-06-05 14:12:00,
2013-06-05 07:22:00,48.0,45.0,-100.00,West,279,2.0,2.0,89,0.00,,,0.00,175.000000,,2013-06-05 14:22:00,
2013-06-05 07:32:00,48.0,45.0,-100.00,West,279,2.0,2.0,89,0.00,,,0.00,175.000000,,2013-06-05 14:32:00,
2013-06-05 07:42:00,48.0,45.0,-100.00,West,279,2.0,2.0,90,0.00,,,0.00,164.000000,,2013-06-05 14:42:00,
2013-06-05 08:02:00,48.0,45.0,-100.00,West,279,2.0,2.0,90,0.00,,,0.00,164.000000,,2013-06-05 15:02:00,
2013-06-05 08:12:00,48.0,45.0,-100.00,West,279,2.0,2.0,90,0.00,,,0.00,164.000000,,2013-06-05 15:12:00,
2013-06-05 08:22:00,48.0,45.0,-100.00,West,279,2.0,2.0,90,0.00,,,0.00,164.000000,,2013-06-05 15:22:00,
2013-06-05 08:33:00,48.0,45.0,-100.00,West,279,2.0,2.0,90,0.00,,,0.00,164.000000,,2013-06-05 15:33:00,
2013-06-05 08:42:00,52.0,47.0,-100.00,West,279,2.0,2.0,82,-99.99,,,0.00,155.000000,,2013-06-05 15:42:00,
2013-06-05 09:03:00,52.0,47.0,-100.00,West,279,2.0,2.0,82,-99.99,,,0.00,155.000000,,2013-06-05 16:03:00,
2013-06-05 09:12:00,52.0,47.0,-100.00,West,279,2.0,2.0,82,-99.99,,,0.00,155.000000,,2013-06-05 16:12:00,
2013-06-05 09:22:00,52.0,47.0,-100.00,West,279,2.0,2.0,82,-99.99,,,0.00,155.000000,,2013-06-05 16:22:00,
2013-06-05 09:32:00,52.0,47.0,-100.00,West,279,2.0,2.0,82,-99.99,,,0.00,155.000000,,2013-06-05 16:32:00,
2013-06-05 09:42:00,59.0,52.0,-100.00,West,279,2.0,2.0,78,-99.99,,,0.00,195.000000,,2013-06-05 16:42:00,
2013-06-05 10:02:00,59.0,52.0,-100.00,West,279,2.0,2.0,78,-99.99,,,0.00,195.000000,,2013-06-05 17:02:00,
2013-06-05 10:12:00,59.0,52.0,-100.00,West,279,2.0,2.0,78,-99.99,,,0.00,195.000000,,2013-06-05 17:12:00,
2013-06-05 10:22:00,59.0,52.0,-100.00,West,279,2.0,2.0,78,-99.99,,,0.00,195.000000,,2013-06-05 17:22:00,
2013-06-05 10:32:00,59.0,52.0,-100.00,West,279,2.0,2.0,78,-99.99,,,0.00,195.000000,,2013-06-05 17:32:00,
2013-06-05 10:42:00,65.0,53.0,-100.00,West,279,2.0,2.0,65,0.00,,,0.00,224.000000,,2013-06-05 17:42:00,
2013-06-05 11:02:00,65.0,53.0,-100.00,West,279,2.0,2.0,65,0.00,,,0.00,224.000000,,2013-06-05 18:02:00,
2013-06-05 11:12:00,65.0,53.0,-100.00,West,279,2.0,2.0,65,0.00,,,0.00,224.000000,,2013-06-05 18:12:00,
2013-06-05 11:22:00,65.0,53.0,-100.00,West,279,2.0,2.0,65,0.00,,,0.00,224.000000,,2013-06-05 18:22:00,
2013-06-05 11:32:00,65.0,53.0,-100.00,West,279,2.0,2.0,65,0.00,,,0.00,224.000000,,2013-06-05 18:32:00,
2013-06-05 11:42:00,70.0,52.0,-100.00,West,279,2.0,2.0,52,-99.99,,,0.00,311.000000,,2013-06-05 18:42:00,
2013-06-05 12:02:00,70.0,52.0,-100.00,West,279,2.0,2.0,52,-99.99,,,0.00,311.000000,,2013-06-05 19:02:00,
2013-06-05 12:12:00,70.0,52.0,-100.00,West,279,2.0,2.0,52,-99.99,,,0.00,311.000000,,2013-06-05 19:12:00,
2013-06-05 12:23:00,70.0,52.0,-100.00,West,279,2.0,2.0,52,-99.99,,,0.00,311.000000,,2013-06-05 19:23:00,
2013-06-05 12:32:00,70.0,52.0,-100.00,West,279,2.0,2.0,52,-99.99,,,0.00,311.000000,,2013-06-05 19:32:00,
2013-06-05 12:42:00,77.0,51.0,-100.00,West,279,1.0,2.0,41,0.00,,,0.00,487.000000,,2013-06-05 19:42:00,
2013-06-05 13:02:00,77.0,51.0,-100.00,West,279,1.0,2.0,41,0.00,,,0.00,487.000000,,2013-06-05 20:02:00,
2013-06-05 13:12:00,77.0,51.0,-100.00,West,279,1.0,2.0,41,0.00,,,0.00,487.000000,,2013-06-05 20:12:00,
2013-06-05 13:22:00,77.0,51.0,-100.00,West,279,1.0,2.0,41,0.00,,,0.00,487.000000,,2013-06-05 20:22:00,
2013-06-05 13:32:00,77.0,51.0,-100.00,West,279,1.0,2.0,41,0.00,,,0.00,487.000000,,2013-06-05 20:32:00,
2013-06-05 13:42:00,81.0,46.0,-100.00,West,279,1.0,1.0,29,0.00,,,0.00,699.000000,,2013-06-05 20:42:00,
2013-06-05 14:02:00,81.0,46.0,-100.00,West,279,1.0,1.0,29,0.00,,,0.00,699.000000,,2013-06-05 21:02:00,
2013-06-05 14:12:00,81.0,46.0,-100.00,West,279,1.0,1.0,29,0.00,,,0.00,699.000000,,2013-06-05 21:12:00,
2013-06-05 14:22:00,81.0,46.0,-100.00,West,279,1.0,1.0,29,0.00,,,0.00,699.000000,,2013-06-05 21:22:00,
2013-06-05 14:33:00,81.0,46.0,-100.00,West,279,1.0,1.0,29,0.00,,,0.00,699.000000,,2013-06-05 21:33:00,
2013-06-05 14:42:00,85.0,48.0,-100.00,SW,218,2.0,7.0,28,0.00,,,0.00,757.000000,,2013-06-05 21:42:00,
2013-06-05 15:02:00,85.0,48.0,-100.00,SW,218,2.0,7.0,28,0.00,,,0.00,757.000000,,2013-06-05 22:02:00,
2013-06-05 15:12:00,85.0,48.0,-100.00,SW,218,2.0,7.0,28,0.00,,,0.00,757.000000,,2013-06-05 22:12:00,
2013-06-05 15:22:00,85.0,48.0,-100.00,SW,218,2.0,7.0,28,0.00,,,0.00,757.000000,,2013-06-05 22:22:00,
2013-06-05 15:32:00,85.0,48.0,-100.00,SW,218,2.0,7.0,28,0.00,,,0.00,757.000000,,2013-06-05 22:32:00,
2013-06-05 15:42:00,85.0,48.0,-100.00,SW,227,4.0,4.0,28,-99.99,,,0.00,967.000000,,2013-06-05 22:42:00,
2013-06-05 16:02:00,85.0,48.0,-100.00,SW,227,4.0,4.0,28,-99.99,,,0.00,967.000000,,2013-06-05 23:02:00,
2013-06-05 16:12:00,85.0,48.0,-100.00,SW,227,4.0,4.0,28,-99.99,,,0.00,967.000000,,2013-06-05 23:12:00,
2013-06-05 16:22:00,85.0,48.0,-100.00,SW,227,4.0,4.0,28,-99.99,,,0.00,967.000000,,2013-06-05 23:22:00,
2013-06-05 16:32:00,85.0,48.0,-100.00,SW,227,4.0,4.0,28,-99.99,,,0.00,967.000000,,2013-06-05 23:32:00,
2013-06-05 16:42:00,83.0,51.0,-100.00,West,279,2.0,7.0,33,0.00,,,-99.99,939.000000,,2013-06-05 23:42:00,
2013-06-05 17:02:00,83.0,51.0,-100.00,West,279,2.0,7.0,33,0.00,,,-99.99,939.000000,,2013-06-06 00:02:00,
2013-06-05 17:12:00,83.0,51.0,-100.00,West,279,2.0,7.0,33,0.00,,,-99.99,939.000000,,2013-06-06 00:12:00,
2013-06-05 17:22:00,83.0,51.0,-100.00,West,279,2.0,7.0,33,0.00,,,-99.99,939.000000,,2013-06-06 00:22:00,
2013-06-05 17:32:00,83.0,51.0,-100.00,West,279,2.0,7.0,33,0.00,,,-99.99,939.000000,,2013-06-06 00:32:00,
2013-06-05 18:02:00,84.0,53.0,-100.00,NE,52,2.0,6.0,35,0.00,,,0.00,804.000000,,2013-06-06 01:02:00,
2013-06-05 18:12:00,84.0,53.0,-100.00,NE,52,2.0,6.0,35,0.00,,,0.00,804.000000,,2013-06-06 01:12:00,
2013-06-05 18:22:00,84.0,53.0,-100.00,NE,52,2.0,6.0,35,0.00,,,0.00,804.000000,,2013-06-06 01:22:00,
2013-06-05 18:32:00,84.0,53.0,-100.00,NE,52,2.0,6.0,35,0.00,,,0.00,804.000000,,2013-06-06 01:32:00,
2013-06-05 18:42:00,79.0,54.0,-100.00,SSE,162,7.0,9.0,42,-99.99,,,0.00,283.000000,,2013-06-06 01:42:00,
2013-06-05 19:02:00,79.0,54.0,-100.00,SSE,162,7.0,9.0,42,-99.99,,,0.00,283.000000,,2013-06-06 02:02:00,
2013-06-05 19:12:00,79.0,54.0,-100.00,SSE,162,7.0,9.0,42,-99.99,,,0.00,283.000000,,2013-06-06 02:12:00,
2013-06-05 19:22:00,79.0,54.0,-100.00,SSE,162,7.0,9.0,42,-99.99,,,0.00,283.000000,,2013-06-06 02:22:00,
2013-06-05 19:32:00,79.0,54.0,-100.00,SSE,162,7.0,9.0,42,-99.99,,,0.00,283.000000,,2013-06-06 02:32:00,
2013-06-05 19:42:00,71.0,53.0,-100.00,West,279,4.0,9.0,53,0.00,,,0.00,442.000000,,2013-06-06 02:42:00,
2013-06-05 20:02:00,71.0,53.0,-100.00,West,279,4.0,9.0,53,0.00,,,0.00,442.000000,,2013-06-06 03:02:00,
2013-06-05 20:12:00,71.0,53.0,-100.00,West,279,4.0,9.0,53,0.00,,,0.00,442.000000,,2013-06-06 03:12:00,
2013-06-05 20:22:00,71.0,53.0,-100.00,West,279,4.0,9.0,53,0.00,,,0.00,442.000000,,2013-06-06 03:22:00,
2013-06-05 20:33:00,71.0,53.0,-100.00,West,279,4.0,9.0,53,0.00,,,0.00,442.000000,,2013-06-06 03:33:00,
2013-06-05 20:42:00,70.0,55.0,-100.00,West,279,1.0,6.0,58,0.00,,,0.00,216.000000,,2013-06-06 03:42:00,
2013-06-05 21:03:00,70.0,55.0,-100.00,West,279,1.0,6.0,58,0.00,,,0.00,216.000000,,2013-06-06 04:03:00,
2013-06-05 21:13:00,70.0,55.0,-100.00,West,279,1.0,6.0,58,0.00,,,0.00,216.000000,,2013-06-06 04:13:00,
2013-06-05 21:23:00,70.0,55.0,-100.00,West,279,1.0,6.0,58,0.00,,,0.00,216.000000,,2013-06-06 04:23:00,
2013-06-05 21:33:00,70.0,55.0,-100.00,West,279,1.0,6.0,58,0.00,,,0.00,216.000000,,2013-06-06 04:33:00,
2013-06-05 21:42:00,66.0,55.0,-100.00,West,279,1.0,1.0,67,0.00,,,0.00,242.000000,,2013-06-06 04:42:00,
2013-06-05 22:02:00,66.0,55.0,-100.00,West,279,1.0,1.0,67,0.00,,,0.00,242.000000,,2013-06-06 05:02:00,
2013-06-05 22:12:00,66.0,55.0,-100.00,West,279,1.0,1.0,67,0.00,,,0.00,242.000000,,2013-06-06 05:12:00,
2013-06-05 22:22:00,66.0,55.0,-100.00,West,279,1.0,1.0,67,0.00,,,0.00,242.000000,,2013-06-06 05:22:00,
2013-06-05 22:32:00,66.0,55.0,-100.00,West,279,1.0,1.0,67,0.00,,,0.00,242.000000,,2013-06-06 05:32:00,
2013-06-05 22:42:00,60.0,51.0,-100.00,West,279,1.0,1.0,71,0.00,,,0.00,324.000000,,2013-06-06 05:42:00,
2013-06-05 23:02:00,60.0,51.0,-100.00,West,279,1.0,1.0,71,0.00,,,0.00,324.000000,,2013-06-06 06:02:00,
2013-06-05 23:12:00,60.0,51.0,-100.00,West,279,1.0,1.0,71,0.00,,,0.00,324.000000,,2013-06-06 06:12:00,
2013-06-05 23:22:00,60.0,51.0,-100.00,West,279,1.0,1.0,71,0.00,,,0.00,324.000000,,2013-06-06 06:22:00,
2013-06-05 23:32:00,60.0,51.0,-100.00,West,279,1.0,1.0,71,0.00,,,0.00,324.000000,,2013-06-06 06:32:00,
2013-06-05 23:42:00,58.0,49.0,-100.00,WSW,257,3.0,3.0,73,0.00,,,0.00,413.000000,,2013-06-06 06:42:00,